Regional Weather Roundup
Issued by NWS Grand Forks, ND

Home | Current Version | Previous Version | Text Only | Print | Product List | Glossary Off
Versions: 1 2 3 4 5 6 7 8 9 10 11 12 13 14 15 16 17 18 19 20 21 22 23 24 25 26 27 28 29 30 31 32 33 34 35 36 37 38 39 40 41 42 43 44 45 46 47 48 49 50

000
ASUS43 KFGF 220631
RWRFGF
PRAIRIE TO PINES  WEATHER ROUNDUP
NATIONAL WEATHER SERVICE EASTERN NORTH DAKOTA/GRAND FORKS ND
1200 AM CST SUN JAN 22 2017

 **SATELLITE DATA USED TO AUGMENT SKY COVER AT AUTOMATED STATIONS**
 *****  WEATHER ACROSS EASTERN NORTH DAKOTA  *****

CITY           SKY/WX    TMP DP  RH WIND       PRES   REMARKS
GRAND FORKS    FOG       34  32  92 CALM      29.59R VSB 1/4
6HR MIN TEMP:  34; 6HR MAX TEMP:  36; 6HR PCP: TRACE;

GRAND FRKS AFB CLOUDY    32  32 100 CALM      29.60R FOG
DEVILS LAKE    CLOUDY    30  30 100 W12       29.58R FOG     WCI  21
6HR MIN TEMP:  32; 6HR MAX TEMP:  33;

FARGO          FOG       36  34  92 CALM      29.58R VSB 1/4
WAHPETON ARPT  CLOUDY    32  32 100 NW3       29.59R VSB 1/2
$$

 ***** WEATHER ACROSS CENTRAL AND WESTERN NORTH DAKOTA  *****

CITY           SKY/WX    TMP DP  RH WIND       PRES   REMARKS
BISMARCK       FOG       18  17  96 CALM      29.63R VSB 1
6HR MIN TEMP:  15; 6HR MAX TEMP:  30;

MINOT          CLOUDY    30  28  92 SW5       29.57R FOG
6HR MIN TEMP:  27; 6HR MAX TEMP:  30;

JAMESTOWN      CLOUDY    31  30  96 W8        29.58R FOG     WCI  23
6HR MIN TEMP:  31; 6HR MAX TEMP:  33;

MINOT AFB      CLOUDY    30  28  93 W10       29.56R FOG     WCI  21
GARRISON         N/A     27  25  92 W9        29.59R WCI  18
WILLISTON      CLOUDY    30  28  92 W8        29.62R WCI  22
6HR MIN TEMP:  30; 6HR MAX TEMP:  31;

DICKINSON      FAIR      19  15  84 W12       29.58R WCI   7
6HR MIN TEMP:  18; 6HR MAX TEMP:  27;

HETTINGER      FAIR      19  16  88 NW8       29.62R WCI   9
6HR MIN TEMP:  18; 6HR MAX TEMP:  22;

$$

 *****  OTHER AIRPORT OBSERVATIONS IN OUR AREA  *****

CITY           SKY/WX    TMP DP  RH WIND       PRES   REMARKS
WALHALLA       NOT AVBL
GRAFTON AIRPOR FOG       32  32 100 CALM      29.61R VSB 1/4
VALLEY CITY AR CLOUDY    32  32 100 NW7       29.60R FOG
CANDO          NOT AVBL
CAVALIER APRT  FOG       32  32 100 S3        29.59R VSB<1/4
GWINNER        CLOUDY    34  34 100 NW7       29.59R
SHEYENNE NWR     N/A     33  33 100 CALM      29.95S
ROLLA            N/A    N/A N/A N/A MISG        N/A
 ***** THE ABOVE OBSERVATIONS ARE NON NWS ARE NOT QUALITY
       CONTROLLED AND MAY MIS-REPORT RAIN FOR SNOW...
$$

  *****  WEATHER ACROSS NORTHERN MINNESOTA  *****

CITY           SKY/WX    TMP DP  RH WIND       PRES   REMARKS
FLAG ISLAND    FOG       34  32  93 CALM      29.60R VSB 1/2
WARROAD        FOG       34  28  80 NE3       29.60R VSB 1/2
ROSEAU         FOG       34  30  86 CALM      29.59R VSB 1/2
HALLOCK        LGT RAIN  36  34  93 CALM      29.59R
THF RVR FALLS  FOG       34  32  93 MISG        N/A  VSB 1
6HR MIN TEMP:  33; 6HR MAX TEMP:  35; 6HR PCP: TRACE;

BAUDETTE       FOG       33  33 100 CALM      29.58R VSB 1/2
6HR MIN TEMP:  33; 6HR MAX TEMP:  35;

WASKISH        FOG       34  34 100 CALM      29.58S VSB 1/2
CROOKSTON      CLOUDY    34  34 100 S3        29.60R FOG
STEPHEN NDAWN    N/A     34  34 100 S2          N/A
GREENBUSH NDAW   N/A     34  34 100 NE3         N/A
$$
  *****  WEATHER ACROSS CENTRAL AND WEST MINNESOTA  *****

CITY           SKY/WX    TMP DP  RH WIND       PRES   REMARKS
FOSSTON        CLOUDY    32  30  93 CALM      29.58S FOG
BEMIDJI        CLOUDY    33  33 100 CALM      29.57R FOG
PARK RAPIDS    FOG       35  32  88 N3        29.56R VSB 1/2
6HR MIN TEMP:  34; 6HR MAX TEMP:  36;

ELBOW LAKE     SNOW      33  33 100 CALM      29.58R VSB 1/2
6HR MIN TEMP:  32; 6HR MAX TEMP:  34;

WADENA         FOG       34  34 100 CALM      29.57R VSB 1/2
DETROIT LAKES  FOG       34  34 100 CALM      29.59R VSB 1/2
MOORHEAD       FOG       34  34 100 CALM      29.60R VSB 1/4
FERGUS FALLS   FOG       34  34 100 CALM      29.62S VSB 3/4
MORRIS MN      FOG       34  34 100 N3        29.56S VSB 1/4
STAPLES        FOG       34  34 100 CALM      29.57R VSB 1/2
$$
  *****  WEATHER ELSEWHERE ACROSS MINNESOTA  *****

CITY           SKY/WX    TMP DP  RH WIND       PRES   REMARKS
DULUTH         CLOUDY    35  34  96 N6        29.53S
6HR MIN TEMP:  34; 6HR MAX TEMP:  35; 6HR PCP: TRACE;

INTRNTL FALLS  FOG       34  33  96 NE3       29.57S VSB 1/4
6HR MIN TEMP:  34; 6HR MAX TEMP:  35;

ELY            CLOUDY    34  34 100 CALM      29.55S FOG
CLOQUET        CLOUDY    34  34 100 CALM      29.55R FOG
WHEATON        MIX PCPN  39  39 100 CALM      29.60S VSB 3/4
BRAINERD       FOG       34  34 100 CALM      29.57R VSB 3/4
6HR MIN TEMP:  33; 6HR MAX TEMP:  35;

HIBBING        CLOUDY    32  32 100 NW3       29.56R FOG
6HR MIN TEMP:  32; 6HR MAX TEMP:  34;

ALEXANDRIA     FOG       33  33 100 CALM      29.57R VSB 1/2
6HR MIN TEMP:  33; 6HR MAX TEMP:  34; 6HR PCP: TRACE;

SAINT CLOUD    FOG       33  33 100 NW3       29.56R VSB 1/2
6HR MIN TEMP:  33; 6HR MAX TEMP:  35;

MINNEAPOLIS    DRIZZLE   36  35  96 N5        29.54S FOG
6HR MIN TEMP:  36; 6HR MAX TEMP:  37; 6HR PCP: TRACE;

$$

  *****  WEATHER ACROSS SOUTH DAKOTA  *****

CITY           SKY/WX    TMP DP  RH WIND       PRES   REMARKS
SIOUX FALLS    CLOUDY    32  30  92 NW7       29.59R
6HR MIN TEMP:  32; 6HR MAX TEMP:  32;

BROOKINGS      CLOUDY    31  30  96 NW8       29.57R WCI  23
WATERTOWN      CLOUDY    31  29  92 NW7       29.57R WCI  24
6HR MIN TEMP:  30; 6HR MAX TEMP:  31;

HURON          CLOUDY    31  29  92 NW9       29.61R WCI  23
6HR MIN TEMP:  31; 6HR MAX TEMP:  32;

SISSETON         N/A     33  33 100 N7        29.57R
ABERDEEN       CLOUDY    32  28  85 NW9       29.61R WCI  24
6HR MIN TEMP:  32; 6HR MAX TEMP:  33;

MITCHELL       CLOUDY    32  30  92 NW8       29.63R WCI  25
PIERRE         FAIR      19  17  92 NW10      29.61R WCI   7
6HR MIN TEMP:  18; 6HR MAX TEMP:  25;

MOBRIDGE       FAIR      14  10  84 CALM      29.61R FOG
RAPID CITY     FAIR      26  20  77 NW7       29.65R WCI  18
6HR MIN TEMP:  24; 6HR MAX TEMP:  32;

$$

  *****  SOME WEATHER IN NEARBY STATES *****

CITY           SKY/WX    TMP DP  RH WIND       PRES   REMARKS
GLASGOW MT     CLOUDY    21  19  92 W5        29.67R FOG     WCI  15
6HR MIN TEMP:  11; 6HR MAX TEMP:  28;

GREAT FALLS MT CLOUDY    26  21  81 SW8       29.69R WCI  18
6HR MIN TEMP:  20; 6HR MAX TEMP:  30;

CHEYENNE WY    CLOUDY    29  20  69 NW6       29.67R WCI  23
6HR MIN TEMP:  27; 6HR MAX TEMP:  34;

SCOTTSBLUFF NE FAIR      26  23  88 NW6       29.67R WCI  19
6HR MIN TEMP:  26; 6HR MAX TEMP:  36;

OMAHA NE       FAIR      32  28  85 N8        29.58R WCI  25
6HR MIN TEMP:  29; 6HR MAX TEMP:  47;

DES MOINES IA  FOG       31  30  96 S5        29.56F VSB 1/8
6HR MIN TEMP:  30; 6HR MAX TEMP:  41;

DAVENPORT IA   MOCLDY    40  36  86 NW5       29.59F
6HR MIN TEMP:  40; 6HR MAX TEMP:  43;

CHICAGO IL     FOG       42  42 100 NW6       29.59S VSB 1/2
6HR MIN TEMP:  40; 6HR MAX TEMP:  51;

EAU CLAIRE WI  FOG       34  32  92 SW3       29.53R VSB 1/2
6HR MIN TEMP:  33; 6HR MAX TEMP:  36;

LA CROSSE WI   CLOUDY    40  37  89 S7        29.55R
6HR MIN TEMP:  40; 6HR MAX TEMP:  43;

$$

  *****  SOME NATIONAL WEATHER *****

CITY           SKY/WX    TMP DP  RH WIND       PRES   REMARKS
LA GUARDIA NY  FOG       47  44  90 S7        29.78S VSB 1
6HR MIN TEMP:  46; 6HR MAX TEMP:  48;

RALEIGH NC     FOG       54  54 100 CALM      29.64F VSB 1/8
6HR MIN TEMP:  54; 6HR MAX TEMP:  55; 6HR PCP:  0.07;

ATLANTA GA     LGT RAIN  57  57 100 SE10      29.60F
6HR MIN TEMP:  57; 6HR MAX TEMP:  59; 6HR PCP:  0.02;

NEW ORLEANS LA FAIR      70  68  93 SW6       29.50F
6HR MIN TEMP:  70; 6HR MAX TEMP:  74; 6HR PCP:  0.02;

OKLAHOMA CITY  MOCLDY    46  43  89 W5        29.34R
6HR MIN TEMP:  46; 6HR MAX TEMP:  59; 6HR PCP: TRACE;

ALBUQUERQUE NM CLOUDY    39  22  50 NW9       29.88R
6HR MIN TEMP:  38; 6HR MAX TEMP:  40;

SALT LAKE CITY MOCLDY    32  27  81 SE9       29.93R WCI  24
6HR MIN TEMP:  29; 6HR MAX TEMP:  35;

LOS ANGELES CA MOCLDY    56  47  71 S3        30.10R
6HR MIN TEMP:  56; 6HR C1F1C2F2C3F3C4F4C5F5C6F6C7F7C8F8C9F9CaFaCbFbCcFcCd!


USA.gov is the U.S. government's official web portal to all federal, state and local government web resources and services.